Change the Weather History Date:

Tuesday, December 21, 2004

  Actual Average Record
Temperature  
Mean Temperature 62 °F 50 °F  
Max Temperature 75 °F 60 °F 79 °F (1948)
Min Temperature 48 °F 40 °F 18 °F (1901)
Degree Days  
Heating Degree Days 4 16  
Month to date heating degree days 305  
Since 1 July heating degree days 630  
Growing Degree Days 12 (Base 50)    
Moisture  
Dew Point 52 °F    
Average Humidity 75    
Maximum Humidity 90    
Minimum Humidity 46    
Precipitation  
Precipitation 0.08 in 0.16 in 2.99 in (1972)
Month to date precipitation 4.61  
Year to date precipitation 54.41  
Snow  
Snow 0.00 in - T in (1963)
Month to date snowfall  
Since 1 July snowfall  
Snow Depth -    
Sea Level Pressure  
Sea Level Pressure 29.94 in    
Wind  
Wind Speed 9 mph (SE)    
Max Wind Speed 16 mph    
Max Gust Speed 23 mph    
Visibility 10 miles    
Events Rain    
T = Trace of Precipitation, MM = Missing Value Source: NWS Daily Summary

Daily Weather History Graph

Daily Weather History Graph

Search for Another Location

Airport or City:

Trip Planner

Search our weather history database for the weather conditions in past years. The results will help you decide how hot, cold, wet, or windy it might be!

Date:

Astronomy

Dec. 21, 2004 Rise Set
Actual Time 7:05 AM CST 5:11 PM CST
Civil Twilight 6:38 AM CST 5:38 PM CST
Nautical Twilight 6:08 AM CST 6:09 PM CST
Astronomical Twilight 5:38 AM CST 6:38 PM CST
Moon 1:50 PM CST (12/21) 2:35 AM CST (12/21)
Length of Visible Light 11h 00m
Length of Day
10h 06m
Waxing Gibbous, 79% of the Moon is Illuminated
Dec 21
Waxing Gibbous
Dec 26
Full
Jan 3
Last Quarter
Jan 10
New
Jan 17
First Quarter

Hourly Weather History & Observations

Time (CST) Temp. Dew Point Humidity Pressure Visibility Wind Dir Wind Speed Gust Speed Precip Events Conditions
12:52 AM 48.0 °F 44.1 °F 86% 30.00 in 10.0 mi SE 5.8 mph - N/A   Partly Cloudy
1:47 AM 48.9 °F 46.0 °F 90% 30.01 in 10.0 mi ESE 6.9 mph - N/A   Partly Cloudy
2:49 AM 50.0 °F 46.0 °F 86% 30.00 in 10.0 mi ESE 6.9 mph - N/A   Mostly Cloudy
3:49 AM 50.0 °F 46.9 °F 89% 30.01 in 10.0 mi SE 6.9 mph - N/A   Mostly Cloudy
4:52 AM 48.9 °F 46.0 °F 90% 30.00 in 10.0 mi ESE 5.8 mph - N/A   Mostly Cloudy
5:47 AM 50.0 °F 46.4 °F 87% 30.01 in 10.0 mi ESE 8.1 mph - N/A   Overcast
6:52 AM 50.0 °F 46.4 °F 87% 30.01 in 10.0 mi SE 10.4 mph - N/A   Clear
7:53 AM 52.0 °F 48.0 °F 86% 30.01 in 10.0 mi SE 10.4 mph - N/A   Clear
8:52 AM 57.0 °F 51.1 °F 81% 30.02 in 10.0 mi SE 10.4 mph - N/A   Mostly Cloudy
9:52 AM 64.0 °F 53.1 °F 67% 30.03 in 10.0 mi SSE 10.4 mph - N/A   Overcast
10:53 AM 69.1 °F 53.1 °F 57% 30.02 in 10.0 mi SSE 12.7 mph - N/A   Scattered Clouds
11:53 AM 72.0 °F 53.1 °F 51% 29.98 in 10.0 mi SSE 16.1 mph 23.0 mph N/A   Mostly Cloudy
12:53 PM 73.9 °F 52.0 °F 46% 29.94 in 10.0 mi SSE 16.1 mph 21.9 mph N/A   Partly Cloudy
1:53 PM 75.0 °F 53.1 °F 46% 29.91 in 10.0 mi SSE 12.7 mph 20.7 mph N/A   Mostly Cloudy
2:53 PM 72.0 °F 52.0 °F 49% 29.89 in 10.0 mi South 10.4 mph - N/A   Partly Cloudy
3:53 PM 70.0 °F 53.1 °F 55% 29.88 in 10.0 mi SSE 12.7 mph 19.6 mph N/A   Overcast
4:53 PM 68.0 °F 53.1 °F 59% 29.89 in 10.0 mi SSE 10.4 mph - 0.00 in Rain Light Rain
5:53 PM 68.0 °F 54.0 °F 61% 29.89 in 10.0 mi SSE 9.2 mph - 0.00 in   Overcast
6:53 PM 64.9 °F 55.9 °F 73% 29.90 in 10.0 mi South 10.4 mph - 0.00 in Rain Light Rain
7:53 PM 59.0 °F 55.9 °F 90% 29.89 in 9.0 mi SE 5.8 mph - 0.07 in   Partly Cloudy
8:53 PM 60.1 °F 55.0 °F 83% 29.89 in 10.0 mi SE 9.2 mph - 0.01 in   Mostly Cloudy
9:53 PM 60.1 °F 55.9 °F 86% 29.89 in 10.0 mi SE 6.9 mph - N/A   Mostly Cloudy
10:53 PM 59.0 °F 55.9 °F 90% 29.88 in 10.0 mi SSE 8.1 mph - N/A   Mostly Cloudy
11:17 PM 60.8 °F 55.4 °F 82% 29.86 in 10.0 mi SE 9.2 mph - N/A   Overcast
11:31 PM 59.0 °F 55.4 °F 88% 29.86 in 10.0 mi SE 8.1 mph - N/A   Mostly Cloudy
11:53 PM 60.1 °F 55.9 °F 86% 29.87 in 10.0 mi SSE 9.2 mph - N/A   Mostly Cloudy